Showing default

LEMUR 2 ESPERANZA, 63352

Orbit data source: Space-Track

LEMUR 2 ESPERANZA, 63352 is a payload satellite owned by OroraTech (US) in SSO that was launched on Wed, 26 Mar 2025 UTC via an ELECTRON launch vehicle from the Rocket Lab Launch Complex (RLLC). Payload-class satellites include a variety of spacecraft equipped with specific instruments for various scientific and technological missions. These include communications satellites like Starlink; space stations such as the ISS; scientific satellites like the Hubble; Earth observation satellites from companies like Planet Labs, Umbra, and HawkEye 360; GPS; miniature CubeSats for education and research; and military/defense satellites.

Loading next visibility...
Identifier
63352, 2025-061B
Orbit
SSO
Country
Flag of USUS
Related business
Manufacturer
Spire/Glasgow
Mission
Operational Commercial Imaging
Bus & Motor
CUBESAT 8U, Unknown motor
Mass
~15 kg wet, ~15 kg dry
Launch date (UTC)
2025-03-26 (1 year ago)
Launch vehicle
ELECTRON
Launch site
Rocket Lab Launch Complex (RLLC)
Object type
Payload
Rocket body
Debris
Shape & HBR
Box + 2 Pan, 0.2 m
Radar Cross Section
0.070 m², Medium (>0.1 m² and < 1m²)

Expand to show TLE details & history
Last TLE update: 16 hours ago

TLE from 16 hours ago
0 LEMUR 2 ESPERANZA
1 63352U 25061B   26264.89889319  .00002464  00000-0  13840-3 0  9993
2 63352  97.5760 239.7701 0016503 293.5324  66.4173 15.14162544 82221
Epoch: 2026-09-21T21:34Z
TLE epoch observation values (Epoch: 2026-09-21T21:34:24.371Z)
Latitude
-0.00007°
Longitude
-84.60355°
Altitude
522.058 km
Speed
7.605 km/s
True Right ascension
15h 59m 04s
True Declination
0° 00' 00"
Sunlit
Object was in daylight at epoch
Visualization orbit readout
Latitude
Unknown
Longitude
Unknown
Altitude
Unknown
Speed
Unknown
Apparent Right ascension
Unknown
Apparent Declination
Unknown
Sunlit
N/A
Visualization observer readout
Local Sidereal Time
06:48:47
Azimuth
Unknown
Elevation
Unknown
Doppler factor
Unknown
Orbital elements
Apogee altitude
531.888 km
Perigee altitude
509.118 km
Semi-major axis
6,898.64 km
Eccentricity
0.00165
Inclination
97.576°
RAAN
239.7701°
Arg. of periapsis
293.5324°
True anomaly
66.59076°
Mean anomaly
66.4173°
Eccentric anomaly
66.50402°
Mean motion
3.7879 °/min
Orbital period
95.04 mins
BSTAR
0.0001384
Loading maneuver chart data...
Computing Atmospheric mass density...
Loading historical data...
Loading historical data...
Loading historical data...
Loading historical data...
Loading historical data...
Loading historical data...
Loading historical data...

Documentation

Showing up to 5 results
|